Wetterdaten: Donnerstag, 08.05.2008
Datum Zeit Temp. a Sch. Temp. a Son. Temp. a Bod. Feuchte a. Luftdruck Regen Wind Richtung Richtung Sonnenschein Helligkeit Taupunkt Windchill
08.05.2008 00:01 9,9 C 11,4 C 10,4 C 67 % 1021 hPa 0,0 l/m 0,0 m/s (0 Bft) O 85 0 min 0 lux 4,1 C 9,9 C
08.05.2008 00:06 9,7 C 11,2 C 10,3 C 68 % 1020 hPa 0,0 l/m 0,0 m/s (0 Bft) O 85 0 min 0 lux 4,1 C 9,7 C
08.05.2008 00:11 9,6 C 11,1 C 10,3 C 68 % 1020 hPa 0,0 l/m 0,0 m/s (0 Bft) O 85 0 min 0 lux 4,0 C 9,6 C
08.05.2008 00:16 9,5 C 11,0 C 10,2 C 68 % 1020 hPa 0,0 l/m 0,0 m/s (0 Bft) O 85 0 min 0 lux 3,9 C 9,5 C
08.05.2008 00:21 9,4 C 10,9 C 10,3 C 68 % 1020 hPa 0,0 l/m 0,0 m/s (0 Bft) O 85 0 min 0 lux 3,8 C 9,4 C
08.05.2008 00:26 9,3 C 10,7 C 9,8 C 69 % 1020 hPa 0,0 l/m 0,0 m/s (0 Bft) O 85 0 min 0 lux 3,9 C 9,3 C
08.05.2008 00:31 9,2 C 10,6 C 10,1 C 69 % 1021 hPa 0,0 l/m 0,0 m/s (0 Bft) O 85 0 min 0 lux 3,8 C 9,2 C
08.05.2008 00:36 9,2 C 10,5 C 9,9 C 70 % 1021 hPa 0,0 l/m 0,0 m/s (0 Bft) O 85 0 min 0 lux 4,0 C 9,2 C
08.05.2008 00:41 9,1 C 10,4 C 10,0 C 70 % 1021 hPa 0,0 l/m 0,0 m/s (0 Bft) O 85 0 min 0 lux 3,9 C 9,1 C
08.05.2008 00:46 9,0 C 10,3 C 9,7 C 70 % 1021 hPa 0,0 l/m 0,0 m/s (0 Bft) O 90 0 min 0 lux 3,8 C 9,0 C
08.05.2008 00:51 8,9 C 10,2 C 9,8 C 71 % 1021 hPa 0,0 l/m 0,0 m/s (0 Bft) O 90 0 min 0 lux 3,9 C 8,9 C
08.05.2008 00:56 8,8 C 10,1 C 9,5 C 71 % 1021 hPa 0,0 l/m 0,0 m/s (0 Bft) O 90 0 min 0 lux 3,8 C 8,8 C
08.05.2008 01:01 8,7 C 10,0 C 9,3 C 71 % 1021 hPa 0,0 l/m 0,0 m/s (0 Bft) O 90 0 min 0 lux 3,7 C 8,7 C
08.05.2008 01:06 8,5 C 9,9 C 9,3 C 71 % 1021 hPa 0,0 l/m 0,0 m/s (0 Bft) O 90 0 min 0 lux 3,5 C 8,5 C
08.05.2008 01:11 8,4 C 9,8 C 8,8 C 73 % 1021 hPa 0,0 l/m 0,0 m/s (0 Bft) O 90 0 min 0 lux 3,8 C 8,4 C
08.05.2008 01:16 8,3 C 9,7 C 8,9 C 73 % 1021 hPa 0,0 l/m 0,0 m/s (0 Bft) O 90 0 min 0 lux 3,8 C 8,3 C
08.05.2008 01:21 8,2 C 9,7 C 9,1 C 73 % 1021 hPa 0,0 l/m 0,0 m/s (0 Bft) O 90 0 min 0 lux 3,7 C 8,2 C
08.05.2008 01:26 8,1 C 9,5 C 8,8 C 73 % 1021 hPa 0,0 l/m 0,0 m/s (0 Bft) O 90 0 min 0 lux 3,6 C 8,1 C
08.05.2008 01:31 8,0 C 9,3 C 8,8 C 73 % 1021 hPa 0,0 l/m 0,0 m/s (0 Bft) O 90 0 min 0 lux 3,5 C 8,0 C
08.05.2008 01:36 8,0 C 9,3 C 8,7 C 75 % 1020 hPa 0,0 l/m 0,0 m/s (0 Bft) O 90 0 min 0 lux 3,8 C 8,0 C
08.05.2008 01:41 7,9 C 9,2 C 8,7 C 74 % 1020 hPa 0,0 l/m 0,0 m/s (0 Bft) O 90 0 min 0 lux 3,6 C 7,9 C
08.05.2008 01:46 7,8 C 9,1 C 8,7 C 74 % 1020 hPa 0,0 l/m 0,0 m/s (0 Bft) O 90 0 min 0 lux 3,5 C 7,8 C
08.05.2008 01:51 7,7 C 9,1 C 8,7 C 74 % 1020 hPa 0,0 l/m 0,0 m/s (0 Bft) O 90 0 min 0 lux 3,4 C 7,7 C
08.05.2008 01:56 7,6 C 8,9 C 8,7 C 74 % 1020 hPa 0,0 l/m 0,0 m/s (0 Bft) O 90 0 min 0 lux 3,3 C 7,6 C
08.05.2008 02:01 7,6 C 8,8 C 8,8 C 75 % 1020 hPa 0,0 l/m 0,0 m/s (0 Bft) O 90 0 min 0 lux 3,5 C 7,6 C
08.05.2008 02:06 7,6 C 8,7 C 8,4 C 75 % 1020 hPa 0,0 l/m 0,0 m/s (0 Bft) O 90 0 min 0 lux 3,5 C 7,6 C
08.05.2008 02:11 7,5 C 8,7 C 8,3 C 75 % 1020 hPa 0,0 l/m 0,0 m/s (0 Bft) O 90 0 min 0 lux 3,4 C 7,5 C
08.05.2008 02:16 7,3 C 8,6 C 8,3 C 76 % 1020 hPa 0,0 l/m 0,0 m/s (0 Bft) O 90 0 min 0 lux 3,4 C 7,3 C
08.05.2008 02:21 7,2 C 8,5 C 8,2 C 76 % 1020 hPa 0,0 l/m 0,0 m/s (0 Bft) O 90 0 min 0 lux 3,3 C 7,2 C
08.05.2008 02:26 7,2 C 8,4 C 7,9 C 76 % 1020 hPa 0,0 l/m 0,0 m/s (0 Bft) O 90 0 min 0 lux 3,3 C 7,2 C
08.05.2008 02:31 7,1 C 8,3 C 8,1 C 76 % 1020 hPa 0,0 l/m 0,0 m/s (0 Bft) O 90 0 min 0 lux 3,2 C 7,1 C
08.05.2008 02:36 7,0 C 8,2 C 8,1 C 76 % 1020 hPa 0,0 l/m 0,0 m/s (0 Bft) O 90 0 min 0 lux 3,1 C 7,0 C
08.05.2008 02:41 6,9 C 8,2 C 7,8 C 77 % 1020 hPa 0,0 l/m 0,0 m/s (0 Bft) O 90 0 min 0 lux 3,2 C 6,9 C
08.05.2008 02:46 6,8 C 8,1 C 8,0 C 77 % 1020 hPa 0,0 l/m 0,0 m/s (0 Bft) O 90 0 min 0 lux 3,1 C 6,8 C
08.05.2008 02:51 6,8 C 8,1 C 7,8 C 77 % 1020 hPa 0,0 l/m 0,0 m/s (0 Bft) O 90 0 min 0 lux 3,1 C 6,8 C
08.05.2008 02:56 6,8 C 7,9 C 7,5 C 78 % 1020 hPa 0,0 l/m 0,0 m/s (0 Bft) O 90 0 min 0 lux 3,2 C 6,8 C
08.05.2008 03:01 6,7 C 7,9 C 7,7 C 77 % 1020 hPa 0,0 l/m 0,0 m/s (0 Bft) O 90 0 min 0 lux 3,0 C 6,7 C
08.05.2008 03:05 6,7 C 7,9 C 7,7 C 77 % 1020 hPa 0,0 l/m 0,0 m/s (0 Bft) O 90 0 min 0 lux 3,0 C 6,7 C
08.05.2008 03:11 6,5 C 7,8 C 7,4 C 78 % 1020 hPa 0,0 l/m 0,0 m/s (0 Bft) O 90 0 min 0 lux 2,9 C 6,5 C
08.05.2008 03:16 6,4 C 7,7 C 7,4 C 79 % 1020 hPa 0,0 l/m 0,0 m/s (0 Bft) O 90 0 min 0 lux 3,0 C 6,4 C
08.05.2008 03:21 6,4 C 7,6 C 7,5 C 79 % 1020 hPa 0,0 l/m 0,0 m/s (0 Bft) O 90 0 min 0 lux 3,0 C 6,4 C
08.05.2008 03:26 6,4 C 7,6 C 7,3 C 78 % 1020 hPa 0,0 l/m 0,0 m/s (0 Bft) O 90 0 min 0 lux 2,8 C 6,4 C
08.05.2008 03:31 6,4 C 7,5 C 7,1 C 78 % 1020 hPa 0,0 l/m 0,0 m/s (0 Bft) O 90 0 min 0 lux 2,8 C 6,4 C
08.05.2008 03:36 6,2 C 7,4 C 7,2 C 79 % 1020 hPa 0,0 l/m 0,0 m/s (0 Bft) O 90 0 min 0 lux 2,8 C 6,2 C
08.05.2008 03:41 6,1 C 7,3 C 7,2 C 79 % 1020 hPa 0,0 l/m 0,0 m/s (0 Bft) O 90 0 min 0 lux 2,7 C 6,1 C
08.05.2008 03:46 6,1 C 7,3 C 6,8 C 79 % 1020 hPa 0,0 l/m 0,0 m/s (0 Bft) O 90 0 min 0 lux 2,7 C 6,1 C
08.05.2008 03:51 6,0 C 7,2 C 7,0 C 79 % 1020 hPa 0,0 l/m 0,0 m/s (0 Bft) O 90 0 min 0 lux 2,6 C 6,0 C
08.05.2008 03:56 6,0 C 7,1 C 6,8 C 79 % 1020 hPa 0,0 l/m 0,0 m/s (0 Bft) O 90 0 min 0 lux 2,6 C 6,0 C
08.05.2008 04:01 5,9 C 7,1 C 6,9 C 80 % 1020 hPa 0,0 l/m 0,0 m/s (0 Bft) O 90 0 min 0 lux 2,7 C 5,9 C
08.05.2008 04:06 5,8 C 6,9 C 6,9 C 80 % 1020 hPa 0,0 l/m 0,0 m/s (0 Bft) O 90 0 min 0 lux 2,6 C 5,8 C
08.05.2008 04:11 5,8 C 6,8 C 6,9 C 81 % 1020 hPa 0,0 l/m 0,0 m/s (0 Bft) O 90 0 min 0 lux 2,8 C 5,8 C
08.05.2008 04:16 5,7 C 6,8 C 6,6 C 81 % 1020 hPa 0,0 l/m 0,0 m/s (0 Bft) O 90 0 min 0 lux 2,7 C 5,7 C
08.05.2008 04:21 5,7 C 6,7 C 6,6 C 81 % 1020 hPa 0,0 l/m 0,0 m/s (0 Bft) O 90 0 min 0 lux 2,7 C 5,7 C
08.05.2008 04:26 5,6 C 6,7 C 6,6 C 81 % 1020 hPa 0,0 l/m 0,0 m/s (0 Bft) O 90 0 min 0 lux 2,6 C 5,6 C
08.05.2008 04:31 5,6 C 6,6 C 6,7 C 81 % 1020 hPa 0,0 l/m 0,0 m/s (0 Bft) O 90 0 min 0 lux 2,6 C 5,6 C
08.05.2008 04:36 5,6 C 6,6 C 6,6 C 81 % 1020 hPa 0,0 l/m 0,0 m/s (0 Bft) O 90 0 min 0 lux 2,6 C 5,6 C
08.05.2008 04:41 5,5 C 6,5 C 6,5 C 81 % 1020 hPa 0,0 l/m 0,0 m/s (0 Bft) O 90 0 min 0 lux 2,5 C 5,5 C
08.05.2008 04:46 5,4 C 6,5 C 6,6 C 82 % 1020 hPa 0,0 l/m 0,0 m/s (0 Bft) O 90 0 min 0 lux 2,6 C 5,4 C
08.05.2008 04:51 5,4 C 6,4 C 6,5 C 82 % 1020 hPa 0,0 l/m 0,0 m/s (0 Bft) O 90 0 min 0 lux 2,6 C 5,4 C
08.05.2008 04:56 5,4 C 6,3 C 6,5 C 82 % 1020 hPa 0,0 l/m 0,0 m/s (0 Bft) O 90 0 min 0 lux 2,6 C 5,4 C
08.05.2008 05:01 5,4 C 6,3 C 6,3 C 82 % 1020 hPa 0,0 l/m 0,0 m/s (0 Bft) O 90 0 min 0 lux 2,6 C 5,4 C
08.05.2008 05:06 5,3 C 6,2 C 6,2 C 83 % 1020 hPa 0,0 l/m 0,0 m/s (0 Bft) O 90 0 min 0 lux 2,7 C 5,3 C
08.05.2008 05:11 5,3 C 6,2 C 6,4 C 82 % 1020 hPa 0,0 l/m 0,0 m/s (0 Bft) O 90 0 min 0 lux 2,5 C 5,3 C
08.05.2008 05:16 5,2 C 6,1 C 6,3 C 82 % 1020 hPa 0,0 l/m 0,0 m/s (0 Bft) O 90 0 min 0 lux 2,4 C 5,2 C
08.05.2008 05:21 5,2 C 6,1 C 6,0 C 82 % 1020 hPa 0,0 l/m 0,0 m/s (0 Bft) O 90 0 min 0 lux 2,4 C 5,2 C
08.05.2008 05:26 5,1 C 6,0 C 5,8 C 82 % 1020 hPa 0,0 l/m 0,0 m/s (0 Bft) O 90 0 min 0 lux 2,3 C 5,1 C
08.05.2008 05:31 4,9 C 5,9 C 6,2 C 82 % 1020 hPa 0,0 l/m 0,0 m/s (0 Bft) O 90 0 min 67 lux 2,1 C 4,9 C
08.05.2008 05:36 4,9 C 5,9 C 6,2 C 82 % 1020 hPa 0,0 l/m 0,0 m/s (0 Bft) O 90 0 min 118 lux 2,1 C 4,9 C
08.05.2008 05:41 4,9 C 5,8 C 6,0 C 82 % 1020 hPa 0,0 l/m 0,0 m/s (0 Bft) O 90 0 min 152 lux 2,1 C 4,9 C
08.05.2008 05:46 4,9 C 5,8 C 6,0 C 83 % 1020 hPa 0,0 l/m 0,0 m/s (0 Bft) O 90 0 min 246 lux 2,3 C 4,9 C
08.05.2008 05:51 4,8 C 5,7 C 5,7 C 83 % 1020 hPa 0,0 l/m 0,0 m/s (0 Bft) O 90 0 min 378 lux 2,2 C 4,8 C
08.05.2008 05:56 4,8 C 5,7 C 5,7 C 83 % 1020 hPa 0,0 l/m 0,0 m/s (0 Bft) O 90 0 min 569 lux 2,2 C 4,8 C
08.05.2008 06:01 4,7 C 5,7 C 6,0 C 83 % 1020 hPa 0,0 l/m 0,0 m/s (0 Bft) O 90 0 min 815 lux 2,1 C 4,7 C
08.05.2008 06:06 4,8 C 5,6 C 6,0 C 83 % 1020 hPa 0,0 l/m 0,0 m/s (0 Bft) O 90 0 min 1,13 klux 2,2 C 4,8 C
08.05.2008 06:11 4,9 C 5,6 C 6,2 C 84 % 1020 hPa 0,0 l/m 0,0 m/s (0 Bft) O 90 0 min 1,47 klux 2,4 C 4,9 C
08.05.2008 06:16 4,8 C 5,6 C 5,9 C 83 % 1020 hPa 0,0 l/m 0,0 m/s (0 Bft) O 90 0 min 1,83 klux 2,2 C 4,8 C
08.05.2008 06:21 4,9 C 5,6 C 6,1 C 83 % 1020 hPa 0,0 l/m 0,0 m/s (0 Bft) O 90 0 min 2,21 klux 2,3 C 4,9 C
08.05.2008 06:26 4,8 C 5,6 C 5,8 C 84 % 1020 hPa 0,0 l/m 0,0 m/s (0 Bft) O 90 0 min 3,81 klux 2,3 C 4,8 C
08.05.2008 06:31 4,8 C 5,6 C 6,1 C 84 % 1020 hPa 0,0 l/m 0,0 m/s (0 Bft) O 90 0 min 3,75 klux 2,3 C 4,8 C
08.05.2008 06:36 4,9 C 5,6 C 6,0 C 83 % 1020 hPa 0,0 l/m 0,0 m/s (0 Bft) O 90 0 min 5,24 klux 2,3 C 4,9 C
08.05.2008 06:41 5,1 C 5,6 C 5,9 C 84 % 1020 hPa 0,0 l/m 0,0 m/s (0 Bft) O 90 0 min 7,56 klux 2,6 C 5,1 C
08.05.2008 06:46 5,1 C 5,6 C 5,9 C 84 % 1020 hPa 0,0 l/m 0,0 m/s (0 Bft) O 90 0 min 8,30 klux 2,6 C 5,1 C
08.05.2008 06:51 5,3 C 5,6 C 5,9 C 85 % 1020 hPa 0,0 l/m 0,0 m/s (0 Bft) O 90 5 min 11,8 klux 3,0 C 5,3 C
08.05.2008 06:56 5,7 C 5,6 C 6,0 C 84 % 1020 hPa 0,0 l/m 0,0 m/s (0 Bft) O 90 5 min 13,1 klux 3,2 C 5,7 C
08.05.2008 07:01 7,2 C 5,7 C 6,5 C 82 % 1020 hPa 0,0 l/m 0,0 m/s (0 Bft) O 90 5 min 14,6 klux 4,3 C 7,2 C
08.05.2008 07:06 8,2 C 5,8 C 6,7 C 80 % 1020 hPa 0,0 l/m 0,0 m/s (0 Bft) O 90 5 min 16,1 klux 5,0 C 8,2 C
08.05.2008 07:11 10,0 C 5,8 C 6,9 C 75 % 1020 hPa 0,0 l/m 0,0 m/s (0 Bft) O 90 5 min 17,4 klux 5,8 C 10,0 C
08.05.2008 07:16 11,4 C 6,0 C 6,9 C 71 % 1020 hPa 0,0 l/m 0,0 m/s (0 Bft) O 90 5 min 18,2 klux 6,3 C 11,4 C
08.05.2008 07:21 11,4 C 6,0 C 11,5 C 71 % 1020 hPa 0,0 l/m 0,0 m/s (0 Bft) O 90 5 min 20,0 klux 6,3 C 11,4 C
08.05.2008 07:26 12,9 C 6,1 C 14,6 C 67 % 1020 hPa 0,0 l/m 0,0 m/s (0 Bft) O 90 5 min 20,6 klux 6,9 C 12,9 C
08.05.2008 07:31 13,5 C 6,2 C 15,3 C 63 % 1020 hPa 0,0 l/m 0,0 m/s (0 Bft) O 90 5 min 22,0 klux 6,6 C 13,5 C
08.05.2008 07:36 13,6 C 6,3 C 16,1 C 63 % 1020 hPa 0,0 l/m 0,0 m/s (0 Bft) O 90 5 min 23,4 klux 6,7 C 13,6 C
08.05.2008 07:41 13,9 C 6,5 C 15,8 C 62 % 1021 hPa 0,0 l/m 0,0 m/s (0 Bft) O 90 5 min 23,9 klux 6,7 C 13,9 C
08.05.2008 07:46 14,2 C 6,7 C 15,5 C 59 % 1021 hPa 0,0 l/m 0,0 m/s (0 Bft) O 90 5 min 25,8 klux 6,3 C 14,2 C
08.05.2008 07:51 14,3 C 6,8 C 15,5 C 59 % 1021 hPa 0,0 l/m 0,0 m/s (0 Bft) O 90 5 min 27,2 klux 6,4 C 14,3 C
08.05.2008 07:56 14,4 C 6,9 C 15,8 C 60 % 1021 hPa 0,0 l/m 0,0 m/s (0 Bft) O 90 5 min 27,8 klux 6,7 C 14,4 C
08.05.2008 08:01 15,2 C 7,1 C 15,3 C 59 % 1021 hPa 0,0 l/m 0,0 m/s (0 Bft) O 90 5 min 29,4 klux 7,2 C 15,2 C
08.05.2008 08:06 15,6 C 7,3 C 15,3 C 58 % 1021 hPa 0,0 l/m 0,0 m/s (0 Bft) O 90 5 min 30,6 klux 7,4 C 15,6 C
08.05.2008 08:11 15,6 C 7,5 C 15,8 C 58 % 1021 hPa 0,0 l/m 0,0 m/s (0 Bft) O 90 5 min 31,9 klux 7,4 C 15,6 C
08.05.2008 08:16 15,7 C 7,7 C 15,6 C 55 % 1021 hPa 0,0 l/m 0,0 m/s (0 Bft) O 90 5 min 33,0 klux 6,7 C 15,7 C
08.05.2008 08:21 14,1 C 7,9 C 15,7 C 58 % 1021 hPa 0,0 l/m 0,0 m/s (0 Bft) O 90 5 min 33,6 klux 6,0 C 14,1 C
08.05.2008 08:26 13,4 C 8,1 C 15,7 C 59 % 1021 hPa 0,0 l/m 0,0 m/s (0 Bft) O 90 5 min 34,8 klux 5,6 C 13,4 C
08.05.2008 08:31 12,6 C 8,3 C 16,0 C 62 % 1021 hPa 0,0 l/m 0,0 m/s (0 Bft) O 90 5 min 35,9 klux 5,5 C 12,6 C
08.05.2008 08:36 12,3 C 8,6 C 15,8 C 64 % 1021 hPa 0,0 l/m 0,0 m/s (0 Bft) O 90 5 min 37,1 klux 5,7 C 12,3 C
08.05.2008 08:41 12,4 C 8,8 C 16,5 C 64 % 1021 hPa 0,0 l/m 0,0 m/s (0 Bft) O 90 5 min 38,1 klux 5,8 C 12,4 C
08.05.2008 08:46 12,6 C 9,0 C 16,8 C 66 % 1021 hPa 0,0 l/m 0,0 m/s (0 Bft) O 90 5 min 39,1 klux 6,4 C 12,6 C
08.05.2008 08:51 13,1 C 9,3 C 17,1 C 66 % 1021 hPa 0,0 l/m 0,0 m/s (0 Bft) SO45 140 5 min 40,3 klux 6,9 C 13,1 C
08.05.2008 08:56 13,6 C 9,8 C 17,5 C 65 % 1021 hPa 0,0 l/m 1,1 m/s (1 Bft) SO45 130 5 min 41,2 klux 7,1 C 13,6 C
08.05.2008 09:01 13,8 C 10,0 C 17,7 C 65 % 1021 hPa 0,0 l/m 1,6 m/s (1 Bft) SO22.5 140 5 min 42,1 klux 7,3 C 13,8 C
08.05.2008 09:06 14,3 C 10,6 C 18,3 C 64 % 1021 hPa 0,0 l/m 2,3 m/s (2 Bft) SO67.5 140 5 min 43,2 klux 7,6 C 13,3 C
08.05.2008 09:11 15,0 C 11,1 C 18,3 C 63 % 1021 hPa 0,0 l/m 2,4 m/s (2 Bft) SO67.5 140 5 min 43,8 klux 8,0 C 13,8 C
08.05.2008 09:16 15,0 C 11,4 C 18,3 C 60 % 1021 hPa 0,0 l/m 2,3 m/s (2 Bft) SO45 135 5 min 44,7 klux 7,3 C 14,0 C
08.05.2008 09:21 15,4 C 11,6 C 18,7 C 62 % 1021 hPa 0,0 l/m 2,4 m/s (2 Bft) S-SO45 155 5 min 45,6 klux 8,2 C 14,3 C
08.05.2008 09:26 15,8 C 12,0 C 18,6 C 58 % 1021 hPa 0,0 l/m 3,3 m/s (2 Bft) SO22.5 135 5 min 46,7 klux 7,6 C 13,2 C
08.05.2008 09:31 15,9 C 12,3 C 18,6 C 58 % 1021 hPa 0,0 l/m 3,2 m/s (2 Bft) SO22.5 140 5 min 47,7 klux 7,6 C 13,5 C
08.05.2008 09:36 16,2 C 12,5 C 18,5 C 54 % 1021 hPa 0,0 l/m 2,8 m/s (2 Bft) O-SO45 120 5 min 48,5 klux 6,9 C 14,4 C
08.05.2008 09:41 16,5 C 12,9 C 18,1 C 52 % 1021 hPa 0,0 l/m 2,8 m/s (2 Bft) O-SO45 115 5 min 49,5 klux 6,6 C 14,8 C
08.05.2008 09:46 16,6 C 13,3 C 17,9 C 51 % 1020 hPa 0,0 l/m 3,0 m/s (2 Bft) O-SO67.5 115 5 min 50,6 klux 6,4 C 14,6 C
08.05.2008 09:51 17,0 C 13,4 C 18,0 C 51 % 1020 hPa 0,0 l/m 2,9 m/s (2 Bft) O-SO67.5 110 5 min 51,3 klux 6,8 C 15,2 C
08.05.2008 09:56 17,5 C 13,7 C 18,0 C 47 % 1020 hPa 0,0 l/m 2,9 m/s (2 Bft) SO22.5 135 5 min 52,5 klux 6,1 C 15,8 C
08.05.2008 10:01 17,6 C 14,1 C 18,0 C 50 % 1020 hPa 0,0 l/m 1,9 m/s (2 Bft) O-SO67.5 120 5 min 52,9 klux 7,1 C 17,3 C
08.05.2008 10:06 17,9 C 15,2 C 17,9 C 47 % 1020 hPa 0,0 l/m 2,6 m/s (2 Bft) SO22.5 140 5 min 53,7 klux 6,4 C 16,6 C
08.05.2008 10:11 17,8 C 15,9 C 18,1 C 45 % 1020 hPa 0,0 l/m 3,8 m/s (3 Bft) O-SO67.5 110 5 min 54,6 klux 5,7 C 15,0 C
08.05.2008 10:16 17,8 C 17,4 C 18,2 C 44 % 1020 hPa 0,0 l/m 3,6 m/s (3 Bft) O-SO45 115 5 min 55,4 klux 5,4 C 15,1 C
08.05.2008 10:21 17,8 C 18,9 C 19,1 C 46 % 1020 hPa 0,0 l/m 3,4 m/s (3 Bft) SO22.5 130 5 min 56,3 klux 6,0 C 15,4 C
08.05.2008 10:26 18,2 C 19,4 C 19,4 C 43 % 1020 hPa 0,0 l/m 2,9 m/s (2 Bft) O-SO45 115 5 min 57,2 klux 5,4 C 16,5 C
08.05.2008 10:31 18,2 C 20,4 C 20,0 C 46 % 1020 hPa 0,0 l/m 2,9 m/s (2 Bft) O-SO45 115 5 min 57,8 klux 6,4 C 16,5 C
08.05.2008 10:36 18,3 C 21,5 C 20,4 C 46 % 1020 hPa 0,0 l/m 3,4 m/s (3 Bft) O-SO22.5 120 5 min 58,6 klux 6,5 C 16,0 C
08.05.2008 10:41 18,7 C 22,0 C 20,5 C 41 % 1020 hPa 0,0 l/m 3,1 m/s (2 Bft) SO67.5 140 5 min 59,5 klux 5,2 C 16,8 C
08.05.2008 10:46 18,7 C 22,6 C 20,9 C 43 % 1020 hPa 0,0 l/m 4,4 m/s (3 Bft) SO45 125 5 min 60,1 klux 5,9 C 15,5 C
08.05.2008 10:51 18,9 C 23,0 C 21,3 C 44 % 1020 hPa 0,0 l/m 3,4 m/s (3 Bft) O-SO22.5 120 5 min 60,8 klux 6,4 C 16,7 C
08.05.2008 10:56 18,8 C 23,8 C 22,0 C 42 % 1020 hPa 0,0 l/m 4,3 m/s (3 Bft) O-SO45 120 5 min 61,3 klux 5,6 C 15,7 C
08.05.2008 11:01 19,0 C 24,0 C 22,0 C 42 % 1020 hPa 0,0 l/m 3,6 m/s (3 Bft) O67.5 100 5 min 61,8 klux 5,8 C 16,6 C
08.05.2008 11:06 19,3 C 24,6 C 22,8 C 44 % 1020 hPa 0,0 l/m 1,8 m/s (2 Bft) O-SO45 110 5 min 62,9 klux 6,7 C 19,3 C
08.05.2008 11:11 19,3 C 24,5 C 22,6 C 44 % 1020 hPa 0,0 l/m 5,0 m/s (3 Bft) O-SO67.5 115 5 min 63,4 klux 6,7 C 15,7 C
08.05.2008 11:16 19,3 C 24,9 C 22,1 C 40 % 1020 hPa 0,0 l/m 3,9 m/s (3 Bft) O-SO67.5 120 5 min 64,0 klux 5,4 C 16,6 C
08.05.2008 11:21 19,7 C 25,4 C 23,1 C 41 % 1020 hPa 0,0 l/m 3,8 m/s (3 Bft) S-SO67.5 150 5 min 64,7 klux 6,1 C 17,3 C
08.05.2008 11:26 20,0 C 25,1 C 24,2 C 39 % 1020 hPa 0,0 l/m 1,9 m/s (2 Bft) S45 175 5 min 65,1 klux 5,6 C 19,8 C
08.05.2008 11:31 20,2 C 25,1 C 23,3 C 36 % 1020 hPa 0,0 l/m 5,2 m/s (3 Bft) S67.5 170 5 min 65,9 klux 4,7 C 16,7 C
08.05.2008 11:36 20,4 C 25,1 C 23,7 C 36 % 1020 hPa 0,0 l/m 4,2 m/s (3 Bft) S-SO67.5 160 5 min 66,0 klux 4,8 C 17,7 C
08.05.2008 11:41 20,4 C 25,4 C 23,7 C 37 % 1020 hPa 0,0 l/m 3,3 m/s (2 Bft) S-SO22.5 150 5 min 67,2 klux 5,2 C 18,5 C
08.05.2008 11:46 20,4 C 25,9 C 24,3 C 36 % 1020 hPa 0,0 l/m 4,9 m/s (3 Bft) SO67.5 125 5 min 67,6 klux 4,8 C 17,1 C
08.05.2008 11:51 20,5 C 26,2 C 24,7 C 33 % 1020 hPa 0,0 l/m 4,9 m/s (3 Bft) SO67.5 125 5 min 67,4 klux 3,7 C 17,3 C
08.05.2008 11:56 20,8 C 25,8 C 24,7 C 33 % 1020 hPa 0,0 l/m 4,5 m/s (3 Bft) SO67.5 145 5 min 68,4 klux 3,9 C 18,0 C
08.05.2008 12:01 20,8 C 25,6 C 25,0 C 33 % 1020 hPa 0,0 l/m 3,9 m/s (3 Bft) S-SO45 165 5 min 68,9 klux 3,9 C 18,4 C
08.05.2008 12:06 21,0 C 25,4 C 24,9 C 33 % 1020 hPa 0,0 l/m 5,6 m/s (4 Bft) S-SO67.5 165 5 min 69,1 klux 4,1 C 17,5 C
08.05.2008 12:11 21,2 C 25,1 C 24,9 C 34 % 1020 hPa 0,0 l/m 3,5 m/s (3 Bft) S45 170 5 min 69,6 klux 4,7 C 19,2 C
08.05.2008 12:16 21,1 C 25,3 C 25,5 C 33 % 1020 hPa 0,0 l/m 1,6 m/s (2 Bft) S67.5 190 5 min 69,8 klux 4,2 C 21,1 C
08.05.2008 12:21 20,9 C 26,0 C 25,3 C 34 % 1020 hPa 0,0 l/m 1,4 m/s (1 Bft) SW67.5 235 5 min 70,2 klux 4,4 C 20,9 C
08.05.2008 12:26 21,1 C 26,1 C 25,1 C 32 % 1020 hPa 0,0 l/m 4,0 m/s (3 Bft) S-SO67.5 160 5 min 70,2 klux 3,8 C 18,7 C
08.05.2008 12:31 21,0 C 26,2 C 26,3 C 35 % 1020 hPa 0,0 l/m 4,8 m/s (3 Bft) O-SO67.5 110 5 min 70,7 klux 5,0 C 18,0 C
08.05.2008 12:36 20,6 C 27,0 C 26,4 C 33 % 1019 hPa 0,0 l/m 5,6 m/s (4 Bft) SO22.5 125 5 min 71,3 klux 3,8 C 16,9 C
08.05.2008 12:41 20,8 C 27,1 C 25,5 C 34 % 1019 hPa 0,0 l/m 5,4 m/s (3 Bft) SO22.5 135 5 min 70,9 klux 4,4 C 17,3 C
08.05.2008 12:46 20,7 C 27,3 C 25,6 C 33 % 1019 hPa 0,0 l/m 4,8 m/s (3 Bft) SO45 140 5 min 70,5 klux 3,9 C 17,7 C
08.05.2008 12:51 20,7 C 27,5 C 25,2 C 33 % 1019 hPa 0,0 l/m 5,8 m/s (4 Bft) SO22.5 135 5 min 71,8 klux 3,9 C 17,0 C
08.05.2008 12:56 20,7 C 28,1 C 26,1 C 33 % 1019 hPa 0,0 l/m 4,4 m/s (3 Bft) SO45 125 5 min 72,5 klux 3,9 C 17,9 C
08.05.2008 13:01 21,1 C 28,2 C 26,3 C 35 % 1019 hPa 0,0 l/m 3,0 m/s (2 Bft) S-SO67.5 155 5 min 71,8 klux 5,0 C 19,6 C
08.05.2008 13:06 21,0 C 27,7 C 26,1 C 32 % 1019 hPa 0,0 l/m 6,0 m/s (4 Bft) O-SO45 115 5 min 71,9 klux 3,7 C 17,2 C
08.05.2008 13:11 20,8 C 27,8 C 25,8 C 37 % 1019 hPa 0,0 l/m 6,7 m/s (4 Bft) SO45 135 5 min 72,5 klux 5,6 C 16,6 C
08.05.2008 13:16 20,9 C 28,5 C 26,3 C 32 % 1019 hPa 0,0 l/m 4,9 m/s (3 Bft) O67.5 100 5 min 72,3 klux 3,6 C 17,8 C
08.05.2008 13:21 20,9 C 28,4 C 25,7 C 34 % 1019 hPa 0,0 l/m 5,4 m/s (3 Bft) O-SO45 120 5 min 72,4 klux 4,4 C 17,4 C
08.05.2008 13:26 21,1 C 29,1 C 26,7 C 35 % 1019 hPa 0,0 l/m 2,6 m/s (2 Bft) SO45 140 5 min 72,6 klux 5,0 C 20,0 C
08.05.2008 13:31 21,4 C 29,3 C 27,2 C 34 % 1019 hPa 0,0 l/m 2,7 m/s (2 Bft) S-SO67.5 155 5 min 72,5 klux 4,9 C 20,2 C
08.05.2008 13:36 21,6 C 29,5 C 27,2 C 35 % 1019 hPa 0,0 l/m 3,6 m/s (3 Bft) S-SO67.5 160 5 min 72,4 klux 5,5 C 19,6 C
08.05.2008 13:41 21,7 C 28,8 C 24,9 C 33 % 1019 hPa 0,0 l/m 5,7 m/s (4 Bft) SO67.5 125 5 min 72,5 klux 4,7 C 18,3 C
08.05.2008 13:46 21,3 C 28,7 C 24,4 C 33 % 1019 hPa 0,0 l/m 6,6 m/s (4 Bft) SO22.5 135 5 min 72,4 klux 4,4 C 17,3 C
08.05.2008 13:51 21,3 C 28,9 C 24,2 C 33 % 1019 hPa 0,0 l/m 3,7 m/s (3 Bft) O-SO67.5 115 5 min 72,2 klux 4,4 C 19,2 C
08.05.2008 13:56 21,2 C 29,2 C 24,0 C 35 % 1019 hPa 0,0 l/m 5,2 m/s (3 Bft) O67.5 95 5 min 72,2 klux 5,1 C 18,0 C
08.05.2008 14:01 21,7 C 29,4 C 23,8 C 33 % 1019 hPa 0,0 l/m 3,7 m/s (3 Bft) SO22.5 135 5 min 72,0 klux 4,7 C 19,7 C
08.05.2008 14:06 21,9 C 29,5 C 23,5 C 33 % 1019 hPa 0,0 l/m 5,2 m/s (3 Bft) S-SO45 150 5 min 71,8 klux 4,9 C 18,9 C
08.05.2008 14:11 22,0 C 29,7 C 23,6 C 33 % 1019 hPa 0,0 l/m 4,8 m/s (3 Bft) S-SW67.5 195 5 min 72,0 klux 5,0 C 19,2 C
08.05.2008 14:16 22,3 C 29,2 C 22,7 C 32 % 1019 hPa 0,0 l/m 7,2 m/s (4 Bft) S-SO67.5 155 5 min 71,2 klux 4,8 C 18,4 C
08.05.2008 14:21 22,2 C 29,3 C 23,0 C 34 % 1019 hPa 0,0 l/m 5,7 m/s (4 Bft) SO67.5 125 5 min 71,0 klux 5,6 C 19,0 C
08.05.2008 14:26 22,5 C 29,8 C 22,8 C 34 % 1019 hPa 0,0 l/m 3,3 m/s (2 Bft) S-SO45 165 5 min 70,7 klux 5,9 C 20,9 C
08.05.2008 14:31 22,8 C 29,9 C 22,8 C 33 % 1019 hPa 0,0 l/m 1,6 m/s (2 Bft) S-SO67.5 160 5 min 70,3 klux 5,7 C 22,8 C
08.05.2008 14:36 22,7 C 29,9 C 22,5 C 32 % 1019 hPa 0,0 l/m 3,7 m/s (3 Bft) SO45 135 5 min 70,5 klux 5,2 C 20,9 C
08.05.2008 14:41 22,8 C 29,6 C 22,2 C 32 % 1019 hPa 0,0 l/m 5,9 m/s (4 Bft) S-SO67.5 160 5 min 70,1 klux 5,2 C 19,7 C
08.05.2008 14:46 22,6 C 29,1 C 22,4 C 30 % 1019 hPa 0,0 l/m 5,2 m/s (3 Bft) SO22.5 145 5 min 70,0 klux 4,1 C 19,8 C
08.05.2008 14:51 22,6 C 29,3 C 22,2 C 33 % 1019 hPa 0,0 l/m 3,6 m/s (3 Bft) O-SO67.5 105 5 min 69,1 klux 5,5 C 20,8 C
08.05.2008 14:56 22,6 C 29,4 C 22,3 C 33 % 1019 hPa 0,0 l/m 3,6 m/s (3 Bft) O-SO67.5 105 5 min 69,0 klux 5,5 C 20,8 C
08.05.2008 15:01 22,6 C 30,3 C 22,1 C 32 % 1019 hPa 0,0 l/m 5,2 m/s (3 Bft) O 80 5 min 68,1 klux 5,1 C 19,7 C
08.05.2008 15:06 22,6 C 30,9 C 22,3 C 31 % 1018 hPa 0,0 l/m 3,6 m/s (3 Bft) SO45 125 5 min 68,2 klux 4,6 C 20,8 C
08.05.2008 15:11 22,6 C 30,6 C 21,9 C 32 % 1018 hPa 0,0 l/m 5,3 m/s (3 Bft) S-SO67.5 160 5 min 66,9 klux 5,1 C 19,7 C
08.05.2008 15:16 22,6 C 30,6 C 22,0 C 32 % 1018 hPa 0,0 l/m 4,0 m/s (3 Bft) S-SO45 160 5 min 67,0 klux 5,1 C 20,5 C
08.05.2008 15:21 22,6 C 30,9 C 22,0 C 33 % 1018 hPa 0,0 l/m 5,6 m/s (4 Bft) SO67.5 140 5 min 66,0 klux 5,5 C 19,5 C
08.05.2008 15:26 22,6 C 30,2 C 21,6 C 33 % 1018 hPa 0,0 l/m 5,6 m/s (4 Bft) SO67.5 140 5 min 66,0 klux 5,5 C 19,5 C
08.05.2008 15:31 22,6 C 30,2 C 21,6 C 35 % 1018 hPa 0,0 l/m 5,5 m/s (3 Bft) S-SO45 150 5 min 65,6 klux 6,4 C 19,6 C
08.05.2008 15:36 22,6 C 30,3 C 21,6 C 34 % 1018 hPa 0,0 l/m 3,9 m/s (3 Bft) S67.5 185 5 min 65,0 klux 5,9 C 20,6 C
08.05.2008 15:41 22,6 C 30,4 C 21,5 C 33 % 1018 hPa 0,0 l/m 5,6 m/s (4 Bft) SO67.5 145 5 min 64,3 klux 5,5 C 19,6 C
08.05.2008 15:46 22,6 C 30,8 C 21,4 C 32 % 1018 hPa 0,0 l/m 5,8 m/s (4 Bft) S-SO67.5 165 5 min 64,0 klux 5,1 C 19,4 C
08.05.2008 15:51 22,6 C 30,9 C 21,5 C 32 % 1018 hPa 0,0 l/m 3,5 m/s (3 Bft) S-SW67.5 205 5 min 62,7 klux 5,1 C 20,9 C
08.05.2008 15:56 22,6 C 30,9 C 21,5 C 32 % 1018 hPa 0,0 l/m 3,9 m/s (3 Bft) SO45 130 5 min 62,5 klux 5,1 C 20,6 C
08.05.2008 16:01 22,6 C 31,3 C 21,8 C 31 % 1018 hPa 0,0 l/m 2,6 m/s (2 Bft) S-SO67.5 155 5 min 61,6 klux 4,6 C 21,7 C
08.05.2008 16:06 22,6 C 31,5 C 21,4 C 30 % 1018 hPa 0,0 l/m 3,3 m/s (2 Bft) SO45 135 5 min 61,0 klux 4,1 C 21,1 C
08.05.2008 16:11 22,6 C 31,6 C 21,4 C 30 % 1018 hPa 0,0 l/m 5,5 m/s (3 Bft) S-SO67.5 155 5 min 59,1 klux 4,1 C 19,6 C
08.05.2008 16:16 22,6 C 30,8 C 21,3 C 29 % 1018 hPa 0,0 l/m 4,7 m/s (3 Bft) SO45 130 5 min 59,1 klux 3,7 C 20,1 C
08.05.2008 16:21 22,6 C 30,7 C 21,0 C 31 % 1018 hPa 0,0 l/m 4,3 m/s (3 Bft) SO45 130 5 min 58,7 klux 4,6 C 20,3 C
08.05.2008 16:26 22,6 C 31,2 C 21,3 C 30 % 1018 hPa 0,0 l/m 4,7 m/s (3 Bft) S-SO67.5 150 5 min 57,5 klux 4,1 C 20,1 C
08.05.2008 16:31 22,6 C 31,2 C 21,4 C 32 % 1018 hPa 0,0 l/m 5,1 m/s (3 Bft) S-SO45 165 5 min 56,8 klux 5,1 C 19,8 C
08.05.2008 16:36 22,6 C 31,6 C 21,2 C 32 % 1018 hPa 0,0 l/m 5,9 m/s (4 Bft) SO45 135 5 min 56,1 klux 5,1 C 19,4 C
08.05.2008 16:41 22,6 C 31,3 C 21,0 C 32 % 1018 hPa 0,0 l/m 6,1 m/s (4 Bft) S-SO45 150 5 min 55,0 klux 5,1 C 19,3 C
08.05.2008 16:46 22,6 C 31,7 C 21,4 C 31 % 1018 hPa 0,0 l/m 2,8 m/s (2 Bft) S-SO67.5 155 5 min 55,0 klux 4,6 C 21,5 C
08.05.2008 16:51 22,6 C 31,7 C 21,1 C 30 % 1018 hPa 0,0 l/m 5,2 m/s (3 Bft) S-SO67.5 150 5 min 53,5 klux 4,1 C 19,8 C
08.05.2008 16:56 22,6 C 31,5 C 21,1 C 29 % 1018 hPa 0,0 l/m 4,1 m/s (3 Bft) SO45 125 5 min 52,8 klux 3,7 C 20,5 C
08.05.2008 17:01 22,6 C 32,0 C 21,5 C 30 % 1018 hPa 0,0 l/m 3,6 m/s (3 Bft) SO45 145 5 min 52,3 klux 4,1 C 20,8 C
08.05.2008 17:06 23,4 C 31,4 C 21,7 C 29 % 1018 hPa 0,0 l/m 4,2 m/s (3 Bft) SO45 140 5 min 51,2 klux 4,3 C 21,4 C
08.05.2008 17:11 23,4 C 30,8 C 23,1 C 29 % 1018 hPa 0,0 l/m 5,4 m/s (3 Bft) S-SO45 150 5 min 50,4 klux 4,3 C 20,7 C
08.05.2008 17:16 23,5 C 30,7 C 23,5 C 29 % 1018 hPa 0,0 l/m 3,9 m/s (3 Bft) S-SO67.5 155 5 min 49,3 klux 4,4 C 21,7 C
08.05.2008 17:21 23,3 C 31,1 C 23,9 C 30 % 1017 hPa 0,0 l/m 4,4 m/s (3 Bft) S-SO45 150 5 min 48,6 klux 4,7 C 21,1 C
08.05.2008 17:26 23,3 C 30,7 C 23,6 C 30 % 1017 hPa 0,0 l/m 5,0 m/s (3 Bft) SO45 145 5 min 47,6 klux 4,7 C 20,8 C
08.05.2008 17:31 23,5 C 30,7 C 23,9 C 30 % 1017 hPa 0,0 l/m 4,6 m/s (3 Bft) S-SO45 150 5 min 46,6 klux 4,9 C 21,2 C
08.05.2008 17:36 23,6 C 29,9 C 24,3 C 29 % 1017 hPa 0,0 l/m 4,2 m/s (3 Bft) S-SO45 155 5 min 45,2 klux 4,5 C 21,6 C
08.05.2008 17:41 23,5 C 30,0 C 24,2 C 30 % 1017 hPa 0,0 l/m 3,9 m/s (3 Bft) S-SO45 150 5 min 44,0 klux 4,9 C 21,7 C
08.05.2008 17:46 23,5 C 30,1 C 24,2 C 30 % 1017 hPa 0,0 l/m 2,8 m/s (2 Bft) S67.5 175 5 min 43,1 klux 4,9 C 22,5 C
08.05.2008 17:51 23,4 C 30,1 C 24,1 C 29 % 1017 hPa 0,0 l/m 4,8 m/s (3 Bft) S-SO45 150 5 min 42,5 klux 4,3 C 21,0 C
08.05.2008 17:56 23,3 C 29,8 C 24,5 C 29 % 1017 hPa 0,0 l/m 4,0 m/s (3 Bft) S-SO22.5 150 5 min 41,2 klux 4,3 C 21,4 C
08.05.2008 18:01 23,2 C 30,0 C 24,7 C 30 % 1017 hPa 0,0 l/m 2,5 m/s (2 Bft) S67.5 185 5 min 40,4 klux 4,7 C 22,4 C
08.05.2008 18:06 23,2 C 30,6 C 24,7 C 30 % 1017 hPa 0,0 l/m 1,7 m/s (2 Bft) SO22.5 135 5 min 39,4 klux 4,7 C 23,2 C
08.05.2008 18:11 23,1 C 30,1 C 24,3 C 29 % 1017 hPa 0,0 l/m 3,5 m/s (3 Bft) S-SO45 165 5 min 38,1 klux 4,1 C 21,5 C
08.05.2008 18:16 23,0 C 30,2 C 24,5 C 30 % 1017 hPa 0,0 l/m 4,5 m/s (3 Bft) SO45 135 5 min 37,1 klux 4,5 C 20,7 C
08.05.2008 18:21 22,9 C 30,1 C 24,7 C 30 % 1017 hPa 0,0 l/m 3,5 m/s (3 Bft) SO45 130 5 min 36,2 klux 4,4 C 21,3 C
08.05.2008 18:26 22,8 C 30,5 C 24,8 C 30 % 1017 hPa 0,0 l/m 3,5 m/s (3 Bft) S-SO67.5 150 5 min 35,0 klux 4,3 C 21,1 C
08.05.2008 18:31 22,8 C 30,1 C 25,1 C 31 % 1017 hPa 0,0 l/m 3,5 m/s (3 Bft) SO67.5 145 5 min 33,8 klux 4,8 C 21,1 C
08.05.2008 18:36 22,9 C 30,3 C 25,1 C 30 % 1017 hPa 0,0 l/m 2,9 m/s (2 Bft) S-SO22.5 150 5 min 33,0 klux 4,4 C 21,8 C
08.05.2008 18:41 24,6 C 29,9 C 25,3 C 29 % 1017 hPa 0,0 l/m 2,6 m/s (2 Bft) S-SO45 160 5 min 31,5 klux 5,4 C 23,9 C
08.05.2008 18:46 25,2 C 29,6 C 24,8 C 26 % 1017 hPa 0,0 l/m 2,7 m/s (2 Bft) SO45 130 5 min 30,6 klux 4,3 C 24,4 C
08.05.2008 18:51 25,1 C 29,6 C 23,0 C 27 % 1017 hPa 0,0 l/m 2,7 m/s (2 Bft) O-SO22.5 115 5 min 29,4 klux 4,8 C 24,4 C
08.05.2008 18:56 25,4 C 29,5 C 22,0 C 26 % 1017 hPa 0,0 l/m 3,9 m/s (3 Bft) O-SO45 105 5 min 28,9 klux 4,5 C 23,9 C
08.05.2008 19:01 25,4 C 29,0 C 21,8 C 26 % 1017 hPa 0,0 l/m 4,5 m/s (3 Bft) O-SO22.5 105 5 min 27,7 klux 4,5 C 23,6 C
08.05.2008 19:06 26,4 C 29,3 C 21,5 C 26 % 1017 hPa 0,0 l/m 3,1 m/s (2 Bft) O22.5 100 5 min 26,3 klux 5,3 C 25,5 C
08.05.2008 19:11 25,9 C 29,3 C 21,5 C 25 % 1017 hPa 0,0 l/m 2,4 m/s (2 Bft) O-SO45 120 5 min 25,1 klux 4,4 C 25,4 C
08.05.2008 19:16 25,9 C 29,5 C 21,3 C 25 % 1017 hPa 0,0 l/m 3,0 m/s (2 Bft) S-SO67.5 150 5 min 23,5 klux 4,4 C 25,0 C
08.05.2008 19:21 25,9 C 29,3 C 21,1 C 27 % 1017 hPa 0,0 l/m 2,3 m/s (2 Bft) SO45 130 5 min 22,1 klux 5,5 C 25,5 C
08.05.2008 19:26 25,2 C 29,2 C 20,6 C 26 % 1017 hPa 0,0 l/m 1,4 m/s (1 Bft) O22.5 100 5 min 20,9 klux 4,3 C 25,2 C
08.05.2008 19:31 24,3 C 28,6 C 20,6 C 28 % 1017 hPa 0,0 l/m 3,2 m/s (2 Bft) O22.5 95 5 min 19,3 klux 4,6 C 23,1 C
08.05.2008 19:36 23,6 C 27,8 C 20,3 C 29 % 1017 hPa 0,0 l/m 4,4 m/s (3 Bft) O-SO22.5 105 5 min 18,0 klux 4,5 C 21,5 C
08.05.2008 19:41 23,7 C 27,5 C 20,0 C 29 % 1017 hPa 0,0 l/m 3,4 m/s (3 Bft) O-SO45 110 5 min 16,9 klux 4,6 C 22,2 C
08.05.2008 19:46 23,5 C 27,5 C 20,0 C 29 % 1017 hPa 0,0 l/m 3,0 m/s (2 Bft) O-SO22.5 105 5 min 16,4 klux 4,4 C 22,3 C
08.05.2008 19:51 23,5 C 26,7 C 19,8 C 29 % 1017 hPa 0,0 l/m 2,4 m/s (2 Bft) O45 90 5 min 15,1 klux 4,4 C 22,9 C
08.05.2008 19:56 23,4 C 26,3 C 19,5 C 29 % 1017 hPa 0,0 l/m 2,4 m/s (2 Bft) O-SO22.5 105 5 min 13,1 klux 4,3 C 22,8 C
08.05.2008 20:01 23,4 C 26,0 C 19,3 C 30 % 1017 hPa 0,0 l/m 2,2 m/s (2 Bft) O-SO22.5 110 5 min 12,4 klux 4,8 C 22,9 C
08.05.2008 20:06 23,1 C 25,7 C 19,0 C 31 % 1017 hPa 0,0 l/m 0,1 m/s (0 Bft) S-SO22.5 150 5 min 11,1 klux 5,0 C 23,1 C
08.05.2008 20:11 22,5 C 24,7 C 18,4 C 31 % 1017 hPa 0,0 l/m 0,0 m/s (0 Bft) SO 145 5 min 9,8 klux 4,5 C 22,5 C
08.05.2008 20:16 21,2 C 24,2 C 18,1 C 34 % 1017 hPa 0,0 l/m 0,0 m/s (0 Bft) SO 145 5 min 8,22 klux 4,7 C 21,2 C
08.05.2008 20:21 20,6 C 23,2 C 18,0 C 35 % 1017 hPa 0,0 l/m 0,8 m/s (1 Bft) SO 145 0 min 3,32 klux 4,6 C 20,6 C
08.05.2008 20:26 19,6 C 22,4 C 17,9 C 38 % 1017 hPa 0,0 l/m 0,1 m/s (0 Bft) SO 145 0 min 2,87 klux 4,9 C 19,6 C
08.05.2008 20:31 18,9 C 21,6 C 17,1 C 38 % 1017 hPa 0,0 l/m 1,1 m/s (1 Bft) O-NO45 60 0 min 2,38 klux 4,3 C 18,9 C
08.05.2008 20:36 18,3 C 21,6 C 17,3 C 40 % 1017 hPa 0,0 l/m 0,0 m/s (0 Bft) NO 55 0 min 1,94 klux 4,5 C 18,3 C
08.05.2008 20:41 18,3 C 20,7 C 16,6 C 40 % 1017 hPa 0,0 l/m 0,0 m/s (0 Bft) O-NO 60 0 min 1,73 klux 4,5 C 18,3 C
08.05.2008 20:46 17,4 C 20,1 C 16,5 C 42 % 1017 hPa 0,0 l/m 0,0 m/s (0 Bft) NO 55 5 min 1,33 klux 4,4 C 17,4 C
08.05.2008 20:51 16,9 C 19,9 C 16,5 C 42 % 1017 hPa 0,0 l/m 0,0 m/s (0 Bft) NO 55 0 min 980 lux 3,9 C 16,9 C
08.05.2008 20:56 16,5 C 19,4 C 16,3 C 45 % 1017 hPa 0,0 l/m 0,0 m/s (0 Bft) NO 55 0 min 683 lux 4,5 C 16,5 C
08.05.2008 21:01 16,3 C 19,0 C 16,1 C 46 % 1017 hPa 0,0 l/m 0,0 m/s (0 Bft) NO 55 0 min 456 lux 4,7 C 16,3 C
08.05.2008 21:06 15,9 C 18,5 C 15,5 C 46 % 1017 hPa 0,0 l/m 0,0 m/s (0 Bft) NO 55 0 min 291 lux 4,3 C 15,9 C
08.05.2008 21:11 15,5 C 18,3 C 15,5 C 47 % 1017 hPa 0,0 l/m 0,0 m/s (0 Bft) NO 55 0 min 176 lux 4,2 C 15,5 C
08.05.2008 21:16 15,4 C 17,9 C 15,3 C 47 % 1017 hPa 0,0 l/m 0,0 m/s (0 Bft) NO 55 0 min 101 lux 4,1 C 15,4 C
08.05.2008 21:21 15,1 C 17,5 C 15,1 C 48 % 1017 hPa 0,0 l/m 0,0 m/s (0 Bft) NO 55 0 min 56 lux 4,2 C 15,1 C
08.05.2008 21:26 15,0 C 17,5 C 15,0 C 50 % 1017 hPa 0,0 l/m 0,0 m/s (0 Bft) NO 55 0 min 31 lux 4,7 C 15,0 C
08.05.2008 21:31 14,8 C 17,0 C 14,9 C 51 % 1017 hPa 0,0 l/m 0,0 m/s (0 Bft) NO 55 0 min 24 lux 4,8 C 14,8 C
08.05.2008 21:36 14,4 C 16,7 C 14,7 C 51 % 1017 hPa 0,0 l/m 0,0 m/s (0 Bft) NO 55 0 min 16 lux 4,4 C 14,4 C
08.05.2008 21:41 14,2 C 16,5 C 14,3 C 53 % 1017 hPa 0,0 l/m 0,0 m/s (0 Bft) O-NO 60 0 min 12 lux 4,8 C 14,2 C
08.05.2008 21:46 14,0 C 16,2 C 14,3 C 53 % 1017 hPa 0,0 l/m 0,0 m/s (0 Bft) NO 55 0 min 6 lux 4,6 C 14,0 C
08.05.2008 21:51 13,8 C 16,1 C 14,0 C 53 % 1017 hPa 0,0 l/m 0,0 m/s (0 Bft) NO 55 0 min 4 lux 4,4 C 13,8 C
08.05.2008 21:56 13,4 C 15,6 C 13,7 C 56 % 1018 hPa 0,0 l/m 0,0 m/s (0 Bft) O-NO 60 0 min 2 lux 4,8 C 13,4 C
08.05.2008 22:01 13,2 C 15,5 C 13,4 C 55 % 1018 hPa 0,0 l/m 0,0 m/s (0 Bft) NO 55 0 min 1 lux 4,4 C 13,2 C
08.05.2008 22:06 13,0 C 15,2 C 13,4 C 56 % 1018 hPa 0,0 l/m 0,0 m/s (0 Bft) NO 55 0 min 0 lux 4,4 C 13,0 C
08.05.2008 22:11 12,8 C 15,0 C 13,4 C 57 % 1018 hPa 0,0 l/m 0,0 m/s (0 Bft) NO 55 0 min 0 lux 4,5 C 12,8 C
08.05.2008 22:16 12,5 C 15,0 C 13,0 C 57 % 1018 hPa 0,0 l/m 0,0 m/s (0 Bft) NO 55 0 min 0 lux 4,2 C 12,5 C
08.05.2008 22:21 12,4 C 14,6 C 13,0 C 57 % 1018 hPa 0,0 l/m 0,0 m/s (0 Bft) NO 55 0 min 0 lux 4,1 C 12,4 C
08.05.2008 22:26 12,4 C 14,4 C 13,0 C 58 % 1018 hPa 0,0 l/m 0,0 m/s (0 Bft) NO 55 0 min 0 lux 4,4 C 12,4 C
08.05.2008 22:31 12,2 C 14,1 C 13,0 C 59 % 1018 hPa 0,0 l/m 0,0 m/s (0 Bft) NO 55 0 min 0 lux 4,4 C 12,2 C
08.05.2008 22:36 12,1 C 14,0 C 12,4 C 60 % 1018 hPa 0,0 l/m 0,0 m/s (0 Bft) NO 55 0 min 0 lux 4,6 C 12,1 C
08.05.2008 22:41 11,9 C 13,8 C 12,3 C 62 % 1018 hPa 0,0 l/m 0,0 m/s (0 Bft) O-NO 60 0 min 0 lux 4,9 C 11,9 C
08.05.2008 22:46 11,6 C 13,5 C 12,2 C 62 % 1018 hPa 0,0 l/m 0,0 m/s (0 Bft) O 80 0 min 0 lux 4,6 C 11,6 C
08.05.2008 22:51 11,5 C 13,4 C 12,1 C 62 % 1018 hPa 0,0 l/m 0,0 m/s (0 Bft) O 80 0 min 0 lux 4,5 C 11,5 C
08.05.2008 22:56 11,4 C 13,3 C 12,2 C 63 % 1018 hPa 0,0 l/m 0,0 m/s (0 Bft) O 80 0 min 0 lux 4,6 C 11,4 C
08.05.2008 23:01 11,2 C 13,2 C 12,1 C 63 % 1018 hPa 0,0 l/m 0,0 m/s (0 Bft) O 80 0 min 0 lux 4,4 C 11,2 C
08.05.2008 23:06 11,1 C 13,0 C 11,3 C 65 % 1018 hPa 0,0 l/m 0,0 m/s (0 Bft) O 80 0 min 0 lux 4,8 C 11,1 C
08.05.2008 23:11 11,1 C 12,9 C 11,6 C 64 % 1018 hPa 0,0 l/m 0,0 m/s (0 Bft) O 80 0 min 0 lux 4,6 C 11,1 C
08.05.2008 23:16 10,9 C 12,7 C 11,3 C 64 % 1018 hPa 0,0 l/m 0,0 m/s (0 Bft) O 80 0 min 0 lux 4,4 C 10,9 C
08.05.2008 23:21 10,8 C 12,6 C 11,8 C 65 % 1018 hPa 0,0 l/m 0,0 m/s (0 Bft) O 80 0 min 0 lux 4,5 C 10,8 C
08.05.2008 23:26 10,8 C 12,5 C 11,3 C 64 % 1018 hPa 0,0 l/m 0,0 m/s (0 Bft) O 80 0 min 0 lux 4,3 C 10,8 C
08.05.2008 23:31 10,8 C 12,3 C 11,4 C 64 % 1018 hPa 0,0 l/m 0,0 m/s (0 Bft) O 85 0 min 0 lux 4,3 C 10,8 C
08.05.2008 23:36 10,8 C 12,2 C 11,4 C 64 % 1018 hPa 0,0 l/m 0,0 m/s (0 Bft) O-NO 70 0 min 0 lux 4,3 C 10,8 C
08.05.2008 23:41 10,8 C 12,1 C 11,2 C 64 % 1018 hPa 0,0 l/m 0,0 m/s (0 Bft) O-NO 70 0 min 0 lux 4,3 C 10,8 C
08.05.2008 23:46 10,6 C 12,0 C 11,4 C 65 % 1018 hPa 0,0 l/m 0,0 m/s (0 Bft) O-NO 70 0 min 0 lux 4,3 C 10,6 C
08.05.2008 23:51 10,5 C 11,8 C 11,1 C 65 % 1018 hPa 0,0 l/m 0,0 m/s (0 Bft) O-NO 70 0 min 0 lux 4,2 C 10,5 C
08.05.2008 23:56 10,4 C 11,8 C 11,1 C 67 % 1018 hPa 0,0 l/m 0,0 m/s (0 Bft) O-NO 70 0 min 0 lux 4,5 C 10,4 C
_ Min-Zeit 06:01 06:06 05:51 19:11 17:21 - 00:01 - - - - 06:01 06:01
Minimum _ 4,7 C 5,6 C 5,7 C 25 % 1017 hPa - 0,0 m/s (0 Bft) - - - - 2,1 C 4,7 C
_ Max-Zeit 19:06 17:01 13:31 06:51 00:01 00:01 14:16 - - 06:51 13:26 09:21 19:06
Maximum _ 26,4 C 32,0 C 27,2 C 85 % 1021 hPa 0,0 l/m 7,2 m/s
S-SO (4 Bft)
- - 5 min 72,6 klux 8,2 C 25,5 C
Durchschnitt _ 15,2 C 17,8 C 16,0 C 53 % 1019 hPa #0,0 l/m 1,8 m/s (2 Bft) SO - #13:35 h 28,1 klux 4,5 C 14,3 C